STARLINK-34644

Last updated on Sat Aug 16 2025 00:02:05 GMT+0000 (Coordinated Universal Time)

1 64812U 25150Y 25227.36645815 .00040365 00000+0 61133-3 0 9994 2 64812 69.9991 315.8130 0004256 286.0028 74.0691 15.54447485 5087

Satellite not in orbit

STARLINK-34644